Regional Weather Roundup
Issued by NWS

Home | Current Version | Previous Version | Graphics & Text | Print | Product List | Glossary On
Versions: 1 2 3 4 5 6 7 8 9 10 11 12 13 14 15 16 17 18 19 20 21 22 23 24 25 26 27 28 29 30 31 32 33 34 35 36 37 38 39 40 41 42 43 44 45 46 47 48 49 50
000
ASUS45 KBOI 232310
RWRID
WEATHER ROUNDUP FOR IDAHO
NATIONAL WEATHER SERVICE BOISE ID
400 PM MST SUN NOV 23 2014

NOTE: "FAIR" INDICATES FEW OR NO CLOUDS BELOW 12000 FEET
WITH NO SIGNIFICANT WEATHER AND/OR OBSTRUCTIONS TO VISIBILITY

IDZ012-014-240000-
SOUTHWEST IDAHO


CITY           SKY/WX    TMP DP  RH WIND       PRES   REMARKS
BOISE          MOSUNNY   45  29  53 NE3       30.25S
CALDWELL       NOT AVBL
MOUNTAIN HOME  MOSUNNY   44  29  56 N5        30.24F
$$

IDZ016-017-240000-
SOUTHCENTRAL IDAHO


CITY           SKY/WX    TMP DP  RH WIND       PRES   REMARKS
BURLEY         LGT RAIN  38  24  57 W18G29    30.20S WCI  28
JEROME         CLEAR     39  24  55 W18       30.22S WCI  30
TWIN FALLS     PTCLDY    40  27  59 W13G23    30.22F WCI  32
$$

IDZ019>023-240000-
SOUTHEAST IDAHO


CITY           SKY/WX    TMP DP  RH WIND       PRES   REMARKS
IDAHO FALLS    PTCLDY    37  24  59 SW20G25   30.10S WCI  27
POCATELLO      PTCLDY    37  28  70 SW23      30.18R WCI  26
REXBURG        CLOUDY    36  22  56 SW16G23   30.07S WCI  26
$$

IDZ006-010-011-018-031-032-240000-
CENTRAL IDAHO MOUNTAINS


CITY           SKY/WX    TMP DP  RH WIND       PRES   REMARKS
MCCALL         FLURRIES  31  24  75 S12       30.14S WCI  22
HAILEY         PTCLDY    34  21  60 SE8       30.12F WCI  27
STANLEY          N/A     29  17  61 VRB7      30.14S WCI  22
SALMON         CLOUDY    36  23  60 N3        30.07F
CHALLIS        MOCLDY    35  19  52 SE6       30.09S WCI  30
$$

IDZ002-004-006-007-026-240000-
NORTHERN IDAHO


CITY           SKY/WX    TMP DP  RH WIND       PRES   REMARKS
LEWISTON       CLOUDY    50  33  52 SW14G24   30.05S
LOWELL           N/A     38  37  97 CALM      30.12F
COEUR D`ALENE  CLOUDY    39  36  87 W15G28    29.96F WCI  31
MULLAN PASS    HVY SNOW  27  25  92 SW8G24    29.88F VSB 1/4 WCI  19
$$


USA.gov is the U.S. government's official web portal to all federal, state and local government web resources and services.